Marion, SC

9:23 PM EST on November 21, 2019 (GMT -0500)
Marion County

Weather History for KMAO - October, 2019

Change the Weather History Date:

Sunday, October 20, 2019

  Actual Average (WUND) Record (WUND)
Temperature  
Mean Temperature 63 °F -  
Max Temperature 71 °F - - (-1)
Min Temperature 55 °F - - (-1)
Degree Days  
Heating Degree Days 2    
Growing Degree Days 13 (Base 50)    
Moisture  
Dew Point 64 °F    
Average Humidity 95    
Maximum Humidity 100    
Minimum Humidity 82    
Precipitation  
Precipitation 0.34 in - - ()
Sea Level Pressure  
Sea Level Pressure 29.77 in    
Wind  
Wind Speed 8 mph ()    
Max Wind Speed 16 mph    
Max Gust Speed 23 mph    
Visibility 8.8 miles    
Events Rain    
Averages and records for this station are not official NWS values.
T = Trace of Precipitation, MM = Missing Value Source: Averaged Metar Reports

Daily Weather History Graph

Daily Weather History Graph

Search for Another Location

Airport or City:

Astronomy

Oct. 20, 2019 Rise Set
Actual Time 7:26 AM EDT 6:37 PM EDT
Civil Twilight 7:01 AM EDT 7:02 PM EDT
Nautical Twilight 6:31 AM EDT 7:31 PM EDT
Astronomical Twilight 6:02 AM EDT 8:00 PM EDT
Moon 11:54 PM EDT (10/20) 1:42 PM EDT (10/20)
Length of Visible Light 12h 01m
Length of Day
11h 10m
Waning Gibbous, 59% of the Moon is Illuminated
Oct 20
Waning Gibbous
Oct 21
Last Quarter
Oct 27
New
Nov 4
First Quarter
Nov 12
Full

Hourly Weather History & Observations

Time (EDT) Temp. Dew Point Humidity Pressure Visibility Wind Dir Wind Speed Gust Speed Precip Events Conditions
12:15 AM 68.0 °F 66.2 °F 94% 29.79 in 5.0 mi ESE 8.1 mph - 0.06 in Rain Heavy Rain
12:35 AM 68.0 °F 68.0 °F 100% 29.77 in 7.0 mi ESE 8.1 mph - 0.13 in Rain Rain
12:55 AM 68.0 °F 68.0 °F 100% 29.75 in 7.0 mi ESE 8.1 mph - 0.19 in Rain Heavy Rain
1:15 AM 68.0 °F 68.0 °F 100% 29.73 in 10.0 mi SE 9.2 mph 18.4 mph 0.01 in Rain Light Rain
1:35 AM 69.8 °F 68.0 °F 94% 29.73 in 10.0 mi SE 12.7 mph 19.6 mph 0.01 in Rain Light Rain
1:55 AM 69.8 °F 68.0 °F 94% 29.71 in 10.0 mi ESE 13.8 mph 19.6 mph 0.01 in   Overcast
2:15 AM 69.8 °F 68.0 °F 94% 29.69 in 10.0 mi ESE 13.8 mph 19.6 mph N/A   Overcast
2:35 AM 69.8 °F 68.0 °F 94% 29.69 in 10.0 mi SE 16.1 mph 23.0 mph N/A Rain Light Rain
2:55 AM 69.8 °F 68.0 °F 94% 29.69 in 7.0 mi SE 10.4 mph 17.3 mph 0.05 in Rain Heavy Rain
3:15 AM 69.8 °F 69.8 °F 100% 29.67 in 10.0 mi ESE 10.4 mph - 0.01 in Rain Light Rain
3:35 AM 69.8 °F 69.8 °F 100% 29.65 in 10.0 mi ESE 6.9 mph - 0.01 in   Overcast
3:55 AM 69.8 °F 69.8 °F 100% 29.63 in 10.0 mi ESE 8.1 mph 16.1 mph 0.02 in   Overcast
4:15 AM 69.8 °F 69.8 °F 100% 29.62 in 10.0 mi ESE 6.9 mph - N/A Rain Light Rain
4:35 AM 69.8 °F 69.8 °F 100% 29.61 in 7.0 mi ESE 6.9 mph - 0.02 in Rain Light Rain
4:55 AM 71.6 °F 69.8 °F 94% 29.62 in 10.0 mi SSE 9.2 mph - 0.05 in   Overcast
5:15 AM 71.6 °F 71.6 °F 100% 29.61 in 10.0 mi SSE 5.8 mph - N/A   Overcast
5:35 AM 71.6 °F 71.6 °F 100% 29.61 in 10.0 mi SSE 5.8 mph - N/A   Overcast
5:55 AM 71.6 °F 71.6 °F 100% 29.62 in 7.0 mi South 8.1 mph - N/A Rain Rain
6:15 AM 71.6 °F 71.6 °F 100% 29.62 in 10.0 mi South 10.4 mph - N/A   Overcast
6:55 AM 71.6 °F 71.6 °F 100% 29.62 in 10.0 mi South 11.5 mph - N/A   Overcast
7:15 AM 71.6 °F 69.8 °F 94% 29.63 in 5.0 mi SSW 10.4 mph - N/A   Overcast
7:35 AM 71.6 °F 69.8 °F 94% 29.63 in 3.0 mi SSW 11.5 mph - N/A   Drizzle
7:55 AM 71.6 °F 69.8 °F 94% 29.64 in 7.0 mi SSW 10.4 mph - N/A   Overcast
8:15 AM 69.8 °F 69.8 °F 100% 29.65 in 7.0 mi SSW 9.2 mph - N/A   Overcast
8:35 AM 69.8 °F 69.8 °F 100% 29.66 in 10.0 mi SSW 10.4 mph - N/A   Overcast
8:55 AM 71.6 °F 69.8 °F 94% 29.67 in 10.0 mi SSW 10.4 mph - N/A   Overcast
9:15 AM 69.8 °F 69.8 °F 100% 29.68 in 10.0 mi SW 9.2 mph - N/A   Overcast
9:35 AM 69.8 °F 69.8 °F 100% 29.69 in 10.0 mi SW 8.1 mph - N/A   Overcast
9:55 AM 69.8 °F 69.8 °F 100% 29.70 in 2.0 mi SW 9.2 mph 16.1 mph N/A   Drizzle
10:15 AM 69.8 °F 69.8 °F 100% 29.71 in 2.5 mi WSW 12.7 mph 17.3 mph 0.01 in Rain Heavy Rain
10:35 AM 68.0 °F 66.2 °F 94% 29.72 in 7.0 mi WNW 11.5 mph 17.3 mph 0.01 in   Overcast
10:55 AM 66.2 °F 64.4 °F 94% 29.73 in 10.0 mi West 11.5 mph 16.1 mph 0.01 in   Overcast
11:15 AM 64.4 °F 64.4 °F 100% 29.74 in 10.0 mi West 15.0 mph 20.7 mph N/A   Overcast
11:35 AM 62.6 °F 62.6 °F 100% 29.76 in 4.0 mi WNW 11.5 mph 18.4 mph N/A   Overcast
11:55 AM 60.8 °F 60.8 °F 100% 29.76 in 7.0 mi West 15.0 mph 19.6 mph N/A   Overcast
12:15 PM 60.8 °F 60.8 °F 100% 29.77 in 2.5 mi WNW 8.1 mph 16.1 mph N/A   Overcast
12:35 PM 60.8 °F 60.8 °F 100% 29.77 in 5.0 mi WNW 9.2 mph 16.1 mph N/A   Overcast
12:55 PM 60.8 °F 59.0 °F 94% 29.78 in 10.0 mi WNW 10.4 mph - N/A   Overcast
1:35 PM 60.8 °F 59.0 °F 94% 29.79 in 10.0 mi WNW 11.5 mph 18.4 mph N/A   Overcast
1:55 PM 60.8 °F 59.0 °F 94% 29.79 in 10.0 mi WNW 9.2 mph 18.4 mph N/A   Overcast
2:15 PM 60.8 °F 57.2 °F 88% 29.79 in 10.0 mi WNW 12.7 mph 18.4 mph N/A   Overcast
2:35 PM 60.8 °F 57.2 °F 88% 29.79 in 10.0 mi WNW 10.4 mph 17.3 mph N/A   Overcast
3:15 PM 60.8 °F 57.2 °F 88% 29.81 in 10.0 mi WNW 11.5 mph 21.9 mph N/A   Overcast
3:35 PM 62.6 °F 57.2 °F 82% 29.82 in 10.0 mi WNW 10.4 mph - N/A   Overcast
3:55 PM 62.6 °F 57.2 °F 82% 29.83 in 10.0 mi NW 8.1 mph 17.3 mph N/A   Overcast
4:15 PM 62.6 °F 57.2 °F 82% 29.84 in 10.0 mi NW 11.5 mph 19.6 mph N/A   Overcast
4:35 PM 62.6 °F 57.2 °F 82% 29.85 in 10.0 mi NW 11.5 mph - 0.01 in   Overcast
4:55 PM 62.6 °F 57.2 °F 82% 29.85 in 10.0 mi WNW 6.9 mph - 0.01 in   Overcast
5:15 PM 62.6 °F 57.2 °F 82% 29.86 in 10.0 mi WNW 6.9 mph - N/A   Overcast
5:35 PM 62.6 °F 57.2 °F 82% 29.86 in 10.0 mi WNW 6.9 mph - N/A   Overcast
5:55 PM 62.6 °F 57.2 °F 82% 29.86 in 10.0 mi West 10.4 mph - N/A   Overcast
6:15 PM 62.6 °F 59.0 °F 88% 29.87 in 10.0 mi WNW 8.1 mph - N/A   Overcast
6:35 PM 62.6 °F 59.0 °F 88% 29.88 in 10.0 mi WNW 9.2 mph - N/A   Overcast
6:55 PM 62.6 °F 59.0 °F 88% 29.88 in 10.0 mi WNW 4.6 mph - N/A   Overcast
7:15 PM 62.6 °F 59.0 °F 88% 29.89 in 10.0 mi WNW 4.6 mph - N/A   Mostly Cloudy
7:35 PM 62.6 °F 59.0 °F 88% 29.90 in 10.0 mi WNW 4.6 mph - N/A   Clear
8:15 PM 60.8 °F 59.0 °F 94% 29.92 in 10.0 mi WNW 3.5 mph - N/A   Clear
8:35 PM 60.8 °F 59.0 °F 94% 29.92 in 10.0 mi WNW 3.5 mph - N/A   Clear
8:55 PM 59.0 °F 59.0 °F 100% 29.93 in 10.0 mi Calm Calm - N/A   Clear
9:15 PM 59.0 °F 59.0 °F 100% 29.94 in 10.0 mi Calm Calm - N/A   Clear
9:35 PM 59.0 °F 57.2 °F 94% 29.95 in 10.0 mi Calm Calm - N/A   Clear
9:55 PM 57.2 °F 57.2 °F 100% 29.95 in 10.0 mi Calm Calm - N/A   Clear
10:15 PM 59.0 °F 57.2 °F 94% 29.96 in 10.0 mi Calm Calm - N/A   Clear
10:35 PM 57.2 °F 57.2 °F 100% 29.97 in 10.0 mi Calm Calm - N/A   Clear
10:55 PM 55.4 °F 55.4 °F 100% 29.97 in 7.0 mi Calm Calm - N/A   Clear
11:15 PM 55.4 °F 55.4 °F 100% 29.97 in 10.0 mi Calm Calm - N/A   Clear
11:55 PM 57.2 °F 57.2 °F 100% 29.97 in 10.0 mi North 3.5 mph - N/A   Clear